sat.trackr.live / text

‹ back to catalog

STARLINK-3927

NORAD 52569 · 2022-051AN

PAYLOAD ACTIVE UNKNOWN

§ Identity

Operator
Country
US
Launch date
2022-05-13
Launch site
AFWTR
Launch vehicle
Mass (kg)
RCS (m²)

Purposes: comms

External: N2YO · Heavens-Above · Gunter

§ Orbital elements

Epoch: 2026-09-19T18:19:30.265536Z

Period
94.01 min
Inclination
53.1604°
Eccentricity
0.0001160
Mean motion
15.31706587 rev/d
Perigee alt
469.9 km
Apogee alt
471.5 km
Semi-major
6,848.9 km
B*
6.1787e-5
RAAN
313.7105°
Arg perigee
70.8722°
Mean anomaly
289.2405°
Rev number
24,107

§ Raw data

STARLINK-39271 52569U 22051AN  26262.76354474  .00001553  00000+0  61787-4 0  99912 52569  53.1604 313.7105 0001160  70.8722 289.2405 15.31706587241079

JSON: /api/v1/satellites/52569 · /tle

For live sub-satellite position, see the globe view (requires WebGL).

§ Visibility from observer

Set your observer location to see the next 7 days of passes ≥ 10°. The values pass through the URL so the page stays shareable.

No JS? Fill the form by hand. The geolocation button needs JavaScript.